www.pogodaiklimat.ru

АРХИВ ПОГОДЫ в Ростове-на-Дону

Время (UTC), дата Ветер
(напр.,м/с)
 
Видим.   Явления Облачность Т
(С)
Тd
(С)
f
(%)
Тe
(С)
Тes
(С)
Комфортность P
(гПа)
Po
(гПа)
Тmin
(С)
Tmax
(С)
R
(мм)
S
(см)
00 23.03 З 5
{11}
8000 м 8/3 600 м
[Sc Ac trans]
+5.8 +1.7 75 +2 +2 по сезону 1011.7 1002.5
03 23.03 С 6
{10}
1100 м ливневой дождь со снегом 10/8 120 м
[Cb calv Ac und]
+0.6 -0.3 94 -6 -6 прохладно 1013.9 1004.5 +0.7 0.4
06 23.03 СВ 6
{12}
3400 м слабый снег {ливн. осадки} 10/5 240 м
[Frnb As op]
-0.4 -1.5 92 -7 -7 холодно 1017.3 1007.9 -0.5
09 23.03 СВ 6 10 км {снег} 10/6 500 м
[Sc Ac und]
0.0 -2.8 81 -7 -6 очень
холодно
1018.9 1009.5
12 23.03 СВ 6 10 км {снег} 9/5 750 м
[Sc Ac trans]
+2.2 -3.3 67 -3 -3 очень
холодно
1019.3 1009.9
15 23.03 СВ 3 10 км в посл. час снег 9/5 900 м
[Sc Ac trans]
+2.6 -6.4 51 -1 -1 прохладно 1020.0 1010.6 +3.4 3
18 23.03 С 3 8000 м {снег} 5/0
[Ac trans]
+0.9 -9.5 46 -3 -3 прохладно 1021.9 1012.5
21 23.03 СВ 4 8000 м 3/0
[Ac trans]
-2.1 -10.3 53 -7 -7 холодно 1023.4 1013.8
00 24.03 СВ 4 8000 м ясно -5.0 -10.7 64 -11 -11 очень
холодно
1024.6 1014.9
03 24.03 В 4 8000 м ясно -5.6 -10.6 68 -12 -12 очень
холодно
1025.8 1016.1 -5.8
06 24.03 В 4 10 км ясно -0.3 -8.6 53 -5 -2 прохладно 1027.0 1017.5 -6.5
09 24.03 ЮЗ 1 10 км 3/0
[Ci fib]
+3.6 -11.2 33 +3 +15 опасность
простуды
1027.0 1017.6
12 24.03 С 2 10 км 4/0
[Ci fib]
+5.6 -9.8 32 +4 +10 по сезону 1025.7 1016.4
15 24.03 Ю 2 10 км 4/0
[Ci fib]
+5.0 -11.0 30 +3 +4 по сезону 1025.7 1016.4 +6.2
18 24.03 штиль 0 8000 м 3/0
[Ci fib]
+2.0 -10.3 40 +2 +2 по сезону 1026.7 1017.3
21 24.03 штиль 0 8000 м ясно 0.0 -8.6 52 -0 -0 по сезону 1027.3 1017.8
00 25.03 ЮЗ 1 8000 м ясно 0.0 -10.3 46 -1 -1 по сезону 1028.0 1018.5
03 25.03 штиль 0 8000 м 5/0
[Ac trans Ci fib]
-0.4 -9.6 50 -1 -1 по сезону 1028.9 1019.4 -1.0
06 25.03 Ю 3 10 км 1/0
[Ci fib]
+6.3 -6.9 38 +4 +8 по сезону 1029.4 1020.1
09 25.03 Ю 3 10 км 5/0
[Ci fib]
+10.8 -1.5 42 +9 +18 тепло 1028.1 1018.9
12 25.03 ЮЗ 4 10 км ясно +14.0 +0.3 39 +13 +18 тепло 1026.2 1017.2
15 25.03 З 3 10 км 1/0
[Ci fib]
+13.5 +0.7 42 +13 +13 тепло 1025.6 1016.6 +14.6
18 25.03 СЗ 2 8000 м дым 1/0
[Ci fib]
+8.9 +0.7 56 +8 +8 тепло 1026.0 1016.8
21 25.03 В 1 8000 м дым ясно +4.5 -0.5 70 +3 +3 по сезону 1025.5 1016.2
00 26.03 СВ 1 8000 м ясно +2.7 -1.6 73 +1 +1 по сезону 1025.5 1016.1
03 26.03 В 3 8000 м 4/0
[Ac trans]
+2.6 -0.8 78 -1 -1 по сезону 1025.7 1016.3 +1.4
06 26.03 В 4 10 км 8/0
[Ac trans Ci fib]
+9.6 +1.7 58 +7 +9 тепло 1025.6 1016.4 +1.4
09 26.03 ЮВ 4 10 км 8/0
[Ac trans Ci fib]
+16.1 -0.3 33 +16 +20 тепло 1024.3 1015.4
12 26.03 Ю 3 10 км 9/0
[Ac trans Ci fib]
+19.3 +0.2 28 +20 +23 тепло 1022.3 1013.5
15 26.03 СЗ 1 10 км 9/0
[Ac trans Ci fib]
+17.2 +1.9 36 +18 +18 тепло 1022.4 1013.5 +19.6
18 26.03 С 2 8000 м дым 9/0
[Ac trans Ci fib]
+13.3 +2.0 46 +13 +13 тепло 1022.5 1013.5
21 26.03 ЮВ 3 8000 м 9/0
[Ci]
+10.0 +1.7 56 +8 +8 тепло 1021.9 1012.8
00 27.03 В 2 8000 м 9/0
[Ci fib]
+6.3 -0.1 64 +4 +4 тепло 1021.7 1012.5
03 27.03 В 3 8000 м 6/0
[Ac trans Ci fib]
+3.7 +0.3 78 0 0 по сезону 1021.2 1011.9 +3.0
06 27.03 В 6 10 км 8/0
[Ac trans Ci fib]
+11.1 +1.4 51 +8 +10 тепло 1021.2 1012.1
09 27.03 В 8-11
{11}
10 км 8/0
[Ac trans Ci fib]
+16.3 -0.7 31 +15 +16 тепло 1019.6 1010.7
12 27.03 В 8-13
{13}
10 км 8/0
[Ac trans Ci fib]
+18.5 -1.8 25 +18 +19 тепло 1018.4 1009.6
15 27.03 В 7-10
{13}
10 км 9/0
[Ac trans Ci fib]
+15.9 -0.8 32 +15 +15 тепло 1018.8 1009.9 +18.6
18 27.03 В 8-11
{13}
8000 м 9/0
[Ac trans Ci fib]
+13.1 +0.5 42 +11 +11 тепло 1020.4 1011.4
21 27.03 В 13-16
{17}
8000 м 5/0
[Ac trans Ci fib]
+7.2 +1.6 68 +1 +1 по сезону 1021.6 1012.4
00 28.03 В 12-17
{17}
8000 м 3/0
[Ci fib]
+5.2 +0.5 72 -1 -1 по сезону 1021.8 1012.5
03 28.03 В 12-15
{17}
8000 м 6/3 300 м
[Sc Ac trans Ci fib]
+1.3 -3.2 72 -7 -7 очень
холодно
1022.5 1013.1 +1.3
06 28.03 В 15-20
{20}
10 км 9/0
[Ac trans Ci fib]
+3.4 -2.8 64 -4 -4 холодно 1022.3 1013.0
09 28.03 В 14-18
{20}
10 км 9/4 600 м
[Sc Ac trans]
+6.4 -1.3 58 0 0 прохладно 1021.7 1012.5
12 28.03 В 15-21
{21}
4000 м пыльная буря 10/4 600 м
[Sc Ac und]
+8.1 -1.2 52 +2 +2 холодно 1019.9 1010.7
15 28.03 В 14-19
{21}
3400 м пыльная буря 10/0
[As op]
+8.2 -3.8 42 +3 +3 прохладно 1020.0 1010.8 +8.5
18 28.03 В 14-21
{22}
3200 м пыльная буря ?/? +6.6 -7.8 35 +1 +1 прохладно 1019.6 1010.4
21 28.03 В 13-20
{22}
1500 м сильная пыльная буря ?/? +4.6 -6.4 45 -2 -2 прохладно 1019.2 1009.9
00 29.03 В 13-16
{22}
1800 м слабый дождь 10/8 240 м
[Frnb As op]
+1.0 -2.4 78 -8 -8 очень
холодно
1019.2 1009.8
03 29.03 12 1500 м слабый переохл. дождь (гололёд) {ливн. осадки} [диам. гололёда 5 мм] 10/10 240 м
[Frnb Ns]
-0.1 -1.5 90 1019.1 1009.7 -0.2 2
06 29.03 В 12-15
{19}
2700 м слабый дождь {ливн. осадки} [диам. гололёда 3 мм] 10/10 270 м
[Frnb Ns]
+0.4 -0.7 92 -8 -8 очень
холодно
1019.2 1009.8
09 29.03 В 13-18
{16}
3100 м слабый дождь [диам. гололёда 3 мм] 10/10 330 м
[Frnb Ns]
+1.0 -0.2 92 -8 -8 очень
холодно
1020.0 1010.6
12 29.03 В 13-17
{21}
7000 м в посл. час дождь [диам. гололёда 0 мм] 10/10 300 м
[Sc]
+1.4 0.0 90 -7 -7 очень
холодно
1020.0 1010.6
15 29.03 В 13-18
{20}
6000 м дымка 10/10 300 м
[Sc]
+1.0 -0.9 87 -8 -8 очень
холодно
1019.7 1010.3 +1.6 3
18 29.03 В 15-21
{20}
3200 м дымка 10/6 400 м
[St Ac und]
+0.8 -1.5 85 -8 -8 очень
холодно
1020.0 1010.6
21 29.03 В 15-19
{22}
1800 м дымка 10/10 210 м
[Sc]
+0.5 -2.7 79 -9 -9 очень
холодно
1017.6 1008.2

 

Местоположение метеостанции Ростов-на-Дону (Ростовская область, Россия): широта 47.27 долгота 39.82 высота над уровнем моря 75 м.

В архиве по умолчанию представлена погода в Ростове-на-Дону за последнюю неделю. Архивные данные за месяц целиком и за предыдущие месяцы, начиная с января 2011 года, Вы можете получить, выбрав интересующий диапазон дат из раскрывающегося списка и нажав кнопку "Ввод!".

Внимание! Время в таблицах - всемирное. Для получения местного времени необходимо прибавить поправку, которая в Ростове-на-Дону равна 3 ч.

Ветер - указаны скорость ветра в м/с - средняя за 10 мин, порывы в срок и между сроками (в фигурных скобках) и направление, откуда дует ветер: С - северный, СВ - северо-восточный, В - восточный, ЮВ - юго-восточный, Ю - южный, ЮЗ - юго-западный, З - западный, СЗ - северо-западный.
Видимость - горизонтальная дальность видимости в метрах или километрах. При видимости от 1 до 10 км при отсутствии осадков обычно наблюдается дымка, при ухудшении видимости до 1 км и менее - туман. В сухую погоду видимость может ухудшаться дымом, пылью или мглою.
Явления - указаны атмосферные явления, наблюдавшиеся в срок или в последний час перед сроком; фигурными скобками обозначены явления, наблюдавшиеся между сроками (за 1-3 часа до срока); квадратными скобками обозначены град или гололедные отложения с указанием их диаметра в мм.
Облачность - указаны через наклонную черту общая и нижняя облачность в баллах и высота нижней границы облаков в метрах; квадратными скобками обозначены формы облаков: Ci - перистые, Cs - перисто-слоистые, Cc - перисто-кучевые, Ac - высококучевые, As - высокослоистые, Sc - слоисто-кучевые, Ns - слоисто-дождевые, Cu - кучевые, Cb - кучево-дождевые. Подробнее классификацию облаков см. в Атласе облаков (PDF).
T - Температура воздуха - температура, измеренная на высоте 2 м над землей.
Td - Температура точки росы - температура, при понижении до которой содержащийся в воздухе водяной пар достигнет насыщения.
f - Относительная влажность воздуха - влажноcть воздуха, измеренная на высоте 2 м над землей.
Te - Эффективная температура - температура, которую ощущает одетый по сезону человек в тени. Характеристика душности погоды. При расчете учитывается влияние влажности воздуха и скорости ветра на теплоощущения человека.
Tes - Эффективная температура на солнце - температура, которую ощущает человек, с поправкой на солнечный нагрев. Характеристика знойности погоды. Зависит от высоты солнца над горизонтом, облачности и скорости ветра. Ночью, в пасмурную погоду, а также при ветре 12 м/с и более поправка равна нулю.
P - Атмосферное давление - приведенное к уровню моря атмосферное давление.
Po - Атмосферное давление - измеренное на уровне метеостанции атмосферное давление.
Tmin - Минимальная температура - минимум температуры воздуха на высоте 2 м над землей.
Tmax - Максимальная температура - максимум температуры воздуха на высоте 2 м над землей.
R - Количество осадков - Количество выпавших осадков, мм.
S - Снежный покров - Высота снежного покрова, см.